sat.trackr.live / text

‹ back to catalog

STARLINK-6372

NORAD 57348 · 2023-099W

PAYLOAD ACTIVE UNKNOWN

§ Identity

Operator
Country
US
Launch date
2023-07-16
Launch site
AFETR
Launch vehicle
Mass (kg)
RCS (m²)

Purposes: comms

External: N2YO · Heavens-Above · Gunter

§ Orbital elements

Epoch: 2026-05-24T19:04:34.474944Z

Period
94.27 min
Inclination
43.0021°
Eccentricity
0.0000843
Mean motion
15.27575966 rev/d
Perigee alt
482.5 km
Apogee alt
483.6 km
Semi-major
6,861.2 km
B*
9.1652e-6
RAAN
179.3663°
Arg perigee
278.8924°
Mean anomaly
81.1832°
Rev number
15,775

§ Raw data

STARLINK-63721 57348U 23099W   26144.79484346 -.00000010  00000+0  91652-5 0  99912 57348  43.0021 179.3663 0000843 278.8924  81.1832 15.27575966157750

JSON: /api/v1/satellites/57348 · /tle

For live sub-satellite position, see the globe view (requires WebGL).

§ Visibility from observer

Set your observer location to see the next 7 days of passes ≥ 10°. The values pass through the URL so the page stays shareable.

No JS? Fill the form by hand. The geolocation button needs JavaScript.